Simultaneous Nadir Overpasses (SNOs) Predictions

Prediction of SNOs between LANDSAT-8 and METOP-B Satellite Orbit:

Table of predicted SNOs for the next 14.0 days since TLE Epoch: 12/9/2017
Index Date (LANDSAT-8) Time (LANDSAT-8) Lat,Lon (LANDSAT-8) SZA (LANDSAT-8 ) Date (METOP-B) Time (METOP-B) Lat,Lon (METOP-B) SZA (METOP-B ) Distance(km) Time Diff (sec)
1 12/10/2017 13:17:39 -81.13,-159.52 73.83 12/10/2017 13:17:19 -81.13,-159.42 73.82 1.71 20
2 12/10/2017 14:07:04 81.16, 8.58 106.25 12/10/2017 14:07:58 81.16, 8.58 106.27 0.33 54
3 12/13/2017 08:51:54 -81.13, -93.06 73.65 12/13/2017 08:51:42 -81.13, -93.02 73.65 0.76 12
4 12/13/2017 09:41:19 81.16, 75.01 106.42 12/13/2017 09:42:21 81.15, 74.94 106.44 1.21 62
5 12/16/2017 04:26:09 -81.13, -26.64 73.53 12/16/2017 04:26:05 -81.13, -26.63 73.53 0.33 4
6 12/16/2017 05:15:34 81.15, 141.41 106.53 12/16/2017 05:16:44 81.15, 141.28 106.55 2.14 70
7 12/18/2017 23:10:57 81.10,-128.26 106.47 12/18/2017 23:09:48 81.10,-128.40 106.43 2.50 69
8 12/19/2017 00:00:23 -81.13, 39.76 73.48 12/19/2017 00:00:27 -81.13, 39.74 73.48 0.59 4
9 12/21/2017 18:45:11 81.12, -61.55 106.50 12/21/2017 18:44:10 81.11, -61.71 106.46 2.77 61




NCC Satellite Simultaneous Nadir Overpasses (SNOs) Prediction Service
